sat.trackr.live / text

‹ back to catalog

YUNHAI-2 02D

NORAD 59283 · 2024-052D

PAYLOAD ACTIVE UNKNOWN

§ Identity

Operator
Country
PRC
Launch date
2024-03-21
Launch site
JSC
Launch vehicle
Mass (kg)
RCS (m²)

External: N2YO · Heavens-Above · Gunter

§ Orbital elements

Epoch: 2026-09-22T22:23:12.636960Z

Period
100.84 min
Inclination
50.0066°
Eccentricity
0.0004425
Mean motion
14.28024402 rev/d
Perigee alt
795.2 km
Apogee alt
801.5 km
Semi-major
7,176.5 km
B*
5.8477e-5
RAAN
208.0984°
Arg perigee
207.7500°
Mean anomaly
152.3179°
Rev number
13,236

§ Raw data

YUNHAI-2 02D1 59283U 24052D   26265.93278515 -.00000015  00000+0  58477-4 0  99922 59283  50.0066 208.0984 0004425 207.7500 152.3179 14.28024402132363

JSON: /api/v1/satellites/59283 · /tle

For live sub-satellite position, see the globe view (requires WebGL).

§ Visibility from observer

Set your observer location to see the next 7 days of passes ≥ 10°. The values pass through the URL so the page stays shareable.

No JS? Fill the form by hand. The geolocation button needs JavaScript.